Year,Month,Day,Hour,Minute,Value (Times are PST for temperature in C)
2009,05,29,00,00,13.90
2009,05,29,00,01,13.90
2009,05,29,00,02,13.90
2009,05,29,00,03,13.90
2009,05,29,00,04,13.80
2009,05,29,00,05,13.80
2009,05,29,00,06,13.80
2009,05,29,00,07,13.70
2009,05,29,00,08,13.70
2009,05,29,00,09,13.60
2009,05,29,00,10,13.60
2009,05,29,00,11,13.50
2009,05,29,00,12,13.50
2009,05,29,00,13,13.40
2009,05,29,00,14,13.40
2009,05,29,00,15,13.40
2009,05,29,00,16,13.30
2009,05,29,00,17,13.30
2009,05,29,00,18,13.30
2009,05,29,00,19,13.30
2009,05,29,00,20,13.30
2009,05,29,00,21,13.30
2009,05,29,00,22,13.30
2009,05,29,00,23,13.30
2009,05,29,00,24,13.30
2009,05,29,00,25,13.30
2009,05,29,00,26,13.30
2009,05,29,00,27,13.30
2009,05,29,00,28,13.40
2009,05,29,00,29,13.40
2009,05,29,00,30,13.40
2009,05,29,00,31,13.40
2009,05,29,00,32,13.40
2009,05,29,00,33,13.30
2009,05,29,00,34,13.30
2009,05,29,00,35,13.30
2009,05,29,00,36,13.30
2009,05,29,00,37,13.40
2009,05,29,00,38,13.40
2009,05,29,00,39,13.40
2009,05,29,00,40,13.40
2009,05,29,00,41,13.50
2009,05,29,00,42,13.50
2009,05,29,00,43,13.60
2009,05,29,00,44,13.60
2009,05,29,00,45,13.60
2009,05,29,00,46,13.70
2009,05,29,00,47,13.70
2009,05,29,00,48,13.70
2009,05,29,00,49,13.70
2009,05,29,00,50,13.70
2009,05,29,00,51,13.70
2009,05,29,00,52,13.60
2009,05,29,00,53,13.60
2009,05,29,00,54,13.60
2009,05,29,00,55,13.60
2009,05,29,00,56,13.50
2009,05,29,00,57,13.50
2009,05,29,00,58,13.50
2009,05,29,00,59,13.50
2009,05,29,01,00,13.40
2009,05,29,01,01,13.40
2009,05,29,01,02,13.40
2009,05,29,01,03,13.40
2009,05,29,01,04,13.40
2009,05,29,01,05,13.30
2009,05,29,01,06,13.30
2009,05,29,01,07,13.30
2009,05,29,01,08,13.30
2009,05,29,01,09,13.20
2009,05,29,01,10,13.20
2009,05,29,01,11,13.20
2009,05,29,01,12,13.20
2009,05,29,01,13,13.10
2009,05,29,01,14,13.10
2009,05,29,01,15,13.10
2009,05,29,01,16,13.10
2009,05,29,01,17,13.00
2009,05,29,01,18,13.00
2009,05,29,01,19,13.00
2009,05,29,01,20,12.90
2009,05,29,01,21,12.90
2009,05,29,01,22,12.90
2009,05,29,01,23,12.80
2009,05,29,01,24,12.80
2009,05,29,01,25,12.80
2009,05,29,01,26,12.80
2009,05,29,01,27,12.80
2009,05,29,01,28,12.80
2009,05,29,01,29,12.80
2009,05,29,01,30,12.70
2009,05,29,01,31,12.70
2009,05,29,01,32,12.70
2009,05,29,01,33,12.70
2009,05,29,01,34,12.70
2009,05,29,01,35,12.80
2009,05,29,01,36,12.80
2009,05,29,01,37,12.80
2009,05,29,01,38,12.90
2009,05,29,01,39,12.90
2009,05,29,01,40,13.00
2009,05,29,01,41,13.00
2009,05,29,01,42,13.10
2009,05,29,01,43,13.10
2009,05,29,01,44,13.10
2009,05,29,01,45,13.10
2009,05,29,01,46,13.10
2009,05,29,01,47,13.10
2009,05,29,01,48,13.10
2009,05,29,01,49,13.10
2009,05,29,01,50,13.10
2009,05,29,01,51,13.10
2009,05,29,01,52,13.20
2009,05,29,01,53,13.20
2009,05,29,01,54,13.20
2009,05,29,01,55,13.30
2009,05,29,01,56,13.30
2009,05,29,01,57,13.30
2009,05,29,01,58,13.30
2009,05,29,01,59,13.30
2009,05,29,02,00,13.30
2009,05,29,02,01,13.30
2009,05,29,02,02,13.40
2009,05,29,02,03,13.40
2009,05,29,02,04,13.40
2009,05,29,02,05,13.40
2009,05,29,02,06,13.40
2009,05,29,02,07,13.50
2009,05,29,02,08,13.50
2009,05,29,02,09,13.60
2009,05,29,02,10,13.60
2009,05,29,02,11,13.60
2009,05,29,02,12,13.60
2009,05,29,02,13,13.60
2009,05,29,02,14,13.60
2009,05,29,02,15,13.60
2009,05,29,02,16,13.60
2009,05,29,02,17,13.60
2009,05,29,02,18,13.60
2009,05,29,02,19,13.60
2009,05,29,02,20,13.70
2009,05,29,02,21,13.70
2009,05,29,02,22,13.70
2009,05,29,02,23,13.80
2009,05,29,02,24,13.80
2009,05,29,02,25,13.80
2009,05,29,02,26,13.80
2009,05,29,02,27,13.80
2009,05,29,02,28,13.80
2009,05,29,02,29,13.70
2009,05,29,02,30,13.70
2009,05,29,02,31,13.60
2009,05,29,02,32,13.60
2009,05,29,02,33,13.50
2009,05,29,02,34,13.50
2009,05,29,02,35,13.50
2009,05,29,02,36,13.60
2009,05,29,02,37,13.60
2009,05,29,02,38,13.60
2009,05,29,02,39,13.70
2009,05,29,02,40,13.70
2009,05,29,02,41,13.70
2009,05,29,02,42,13.80
2009,05,29,02,43,13.80
2009,05,29,02,44,13.90
2009,05,29,02,45,13.90
2009,05,29,02,46,14.00
2009,05,29,02,47,14.00
2009,05,29,02,48,14.00
2009,05,29,02,49,14.00
2009,05,29,02,50,14.00
2009,05,29,02,51,14.00
2009,05,29,02,52,14.00
2009,05,29,02,53,13.90
2009,05,29,02,54,14.00
2009,05,29,02,55,14.00
2009,05,29,02,56,14.00
2009,05,29,02,57,14.00
2009,05,29,02,58,14.10
2009,05,29,02,59,14.10
2009,05,29,03,00,14.10
2009,05,29,03,01,14.10
2009,05,29,03,02,14.10
2009,05,29,03,03,14.10
2009,05,29,03,04,14.20
2009,05,29,03,05,14.20
2009,05,29,03,06,14.20
2009,05,29,03,07,14.20
2009,05,29,03,08,14.20
2009,05,29,03,09,14.20
2009,05,29,03,10,14.20
2009,05,29,03,11,14.20
2009,05,29,03,12,14.20
2009,05,29,03,13,14.20
2009,05,29,03,14,14.20
2009,05,29,03,15,14.20
2009,05,29,03,16,14.20
2009,05,29,03,17,14.20
2009,05,29,03,18,14.10
2009,05,29,03,19,14.10
2009,05,29,03,20,14.10
2009,05,29,03,21,14.10
2009,05,29,03,22,14.10
2009,05,29,03,23,14.10
2009,05,29,03,24,14.10
2009,05,29,03,25,14.10
2009,05,29,03,26,14.10
2009,05,29,03,27,14.10
2009,05,29,03,28,14.10
2009,05,29,03,29,14.00
2009,05,29,03,30,14.00
2009,05,29,03,31,13.90
2009,05,29,03,32,13.90
2009,05,29,03,33,13.80
2009,05,29,03,34,13.70
2009,05,29,03,35,13.70
2009,05,29,03,36,13.60
2009,05,29,03,37,13.50
2009,05,29,03,38,13.40
2009,05,29,03,39,13.30
2009,05,29,03,40,13.30
2009,05,29,03,41,13.20
2009,05,29,03,42,13.10
2009,05,29,03,43,13.10
2009,05,29,03,44,13.00
2009,05,29,03,45,13.00
2009,05,29,03,46,12.90
2009,05,29,03,47,12.90
2009,05,29,03,48,12.90
2009,05,29,03,49,12.90
2009,05,29,03,50,12.90
2009,05,29,03,51,12.90
2009,05,29,03,52,13.00
2009,05,29,03,53,13.00
2009,05,29,03,54,13.10
2009,05,29,03,55,13.10
2009,05,29,03,56,13.10
2009,05,29,03,57,13.20
2009,05,29,03,58,13.20
2009,05,29,03,59,13.20
2009,05,29,04,00,13.30
2009,05,29,04,01,13.30
2009,05,29,04,02,13.30
2009,05,29,04,03,13.30
2009,05,29,04,04,13.40
2009,05,29,04,05,13.40
2009,05,29,04,06,13.50
2009,05,29,04,07,13.50
2009,05,29,04,08,13.60
2009,05,29,04,09,13.70
2009,05,29,04,10,13.80
2009,05,29,04,11,13.80
2009,05,29,04,12,13.80
2009,05,29,04,13,13.80
2009,05,29,04,14,13.90
2009,05,29,04,15,13.90
2009,05,29,04,16,13.90
2009,05,29,04,17,13.90
2009,05,29,04,18,13.90
2009,05,29,04,19,14.00
2009,05,29,04,20,14.00
2009,05,29,04,21,14.10
2009,05,29,04,22,14.10
2009,05,29,04,23,14.10
2009,05,29,04,24,14.10
2009,05,29,04,25,14.10
2009,05,29,04,26,14.10
2009,05,29,04,27,14.10
2009,05,29,04,28,14.10
2009,05,29,04,29,14.00
2009,05,29,04,30,14.00
2009,05,29,04,31,14.00
2009,05,29,04,32,14.00
2009,05,29,04,33,14.00
2009,05,29,04,34,14.00
2009,05,29,04,35,13.90
2009,05,29,04,36,13.90
2009,05,29,04,37,13.80
2009,05,29,04,38,13.80
2009,05,29,04,39,13.70
2009,05,29,04,40,13.60
2009,05,29,04,41,13.50
2009,05,29,04,42,13.50
2009,05,29,04,43,13.40
2009,05,29,04,44,13.40
2009,05,29,04,45,13.30
2009,05,29,04,46,13.30
2009,05,29,04,47,13.30
2009,05,29,04,48,13.30
2009,05,29,04,49,13.30
2009,05,29,04,50,13.30
2009,05,29,04,51,13.30
2009,05,29,04,52,13.30
2009,05,29,04,53,13.30
2009,05,29,04,54,13.30
2009,05,29,04,55,13.40
2009,05,29,04,56,13.40
2009,05,29,04,57,13.40
2009,05,29,04,58,13.30
2009,05,29,04,59,13.30
2009,05,29,05,00,13.30
2009,05,29,05,01,13.30
2009,05,29,05,02,13.30
2009,05,29,05,03,13.30
2009,05,29,05,04,13.30
2009,05,29,05,05,13.30
2009,05,29,05,06,13.30
2009,05,29,05,07,13.30
2009,05,29,05,08,13.30
2009,05,29,05,09,13.40
2009,05,29,05,10,13.40
2009,05,29,05,11,13.40
2009,05,29,05,12,13.40
2009,05,29,05,13,13.40
2009,05,29,05,14,13.40
2009,05,29,05,15,13.50
2009,05,29,05,16,13.50
2009,05,29,05,17,13.50
2009,05,29,05,18,13.60
2009,05,29,05,19,13.60
2009,05,29,05,20,13.60
2009,05,29,05,21,13.60
2009,05,29,05,22,13.60
2009,05,29,05,23,13.60
2009,05,29,05,24,13.60
2009,05,29,05,25,13.60
2009,05,29,05,26,13.60
2009,05,29,05,27,13.70
2009,05,29,05,28,13.70
2009,05,29,05,29,13.70
2009,05,29,05,30,13.70
2009,05,29,05,31,13.70
2009,05,29,05,32,13.80
2009,05,29,05,33,13.80
2009,05,29,05,34,13.90
2009,05,29,05,35,13.90
2009,05,29,05,36,14.00
2009,05,29,05,37,14.00
2009,05,29,05,38,14.10
2009,05,29,05,39,14.10
2009,05,29,05,40,14.10
2009,05,29,05,41,14.20
2009,05,29,05,42,14.20
2009,05,29,05,43,14.20
2009,05,29,05,44,14.10
2009,05,29,05,45,14.10
2009,05,29,05,46,14.10
2009,05,29,05,47,14.10
2009,05,29,05,48,14.00
2009,05,29,05,49,14.00
2009,05,29,05,50,13.90
2009,05,29,05,51,13.90
2009,05,29,05,52,13.90
2009,05,29,05,53,13.90
2009,05,29,05,54,13.90
2009,05,29,05,55,13.90
2009,05,29,05,56,13.90
2009,05,29,05,57,13.80
2009,05,29,05,58,13.90
2009,05,29,05,59,13.90
2009,05,29,06,00,13.90
2009,05,29,06,01,13.90
2009,05,29,06,02,13.90
2009,05,29,06,03,13.90
2009,05,29,06,04,13.90
2009,05,29,06,05,13.90
2009,05,29,06,06,13.90
2009,05,29,06,07,13.80
2009,05,29,06,08,13.80
2009,05,29,06,09,13.90
2009,05,29,06,10,13.90
2009,05,29,06,11,13.90
2009,05,29,06,12,13.90
2009,05,29,06,13,13.90
2009,05,29,06,14,13.90
2009,05,29,06,15,13.90
2009,05,29,06,16,14.00
2009,05,29,06,17,14.00
2009,05,29,06,18,14.00
2009,05,29,06,19,14.10
2009,05,29,06,20,14.10
2009,05,29,06,21,14.10
2009,05,29,06,22,14.20
2009,05,29,06,23,14.20
2009,05,29,06,24,14.30
2009,05,29,06,25,14.30
2009,05,29,06,26,14.40
2009,05,29,06,27,14.40
2009,05,29,06,28,14.50
2009,05,29,06,29,14.50
2009,05,29,06,30,14.60
2009,05,29,06,31,14.60
2009,05,29,06,32,14.60
2009,05,29,06,33,14.60
2009,05,29,06,34,14.70
2009,05,29,06,35,14.70
2009,05,29,06,36,14.70
2009,05,29,06,37,14.70
2009,05,29,06,38,14.70
2009,05,29,06,39,14.70
2009,05,29,06,40,14.70
2009,05,29,06,41,14.70
2009,05,29,06,42,14.70
2009,05,29,06,43,14.80
2009,05,29,06,44,14.80
2009,05,29,06,45,14.80
2009,05,29,06,46,14.90
2009,05,29,06,47,15.00
2009,05,29,06,48,15.00
2009,05,29,06,49,15.00
2009,05,29,06,50,15.00
2009,05,29,06,51,15.00
2009,05,29,06,52,15.00
2009,05,29,06,53,15.00
2009,05,29,06,54,15.00
2009,05,29,06,55,15.10
2009,05,29,06,56,15.10
2009,05,29,06,57,15.20
2009,05,29,06,58,15.20
2009,05,29,06,59,15.20
2009,05,29,07,00,15.30
2009,05,29,07,01,15.30
2009,05,29,07,02,15.40
2009,05,29,07,03,15.40
2009,05,29,07,04,15.40
2009,05,29,07,05,15.50
2009,05,29,07,06,15.50
2009,05,29,07,07,15.60
2009,05,29,07,08,15.60
2009,05,29,07,09,15.60
2009,05,29,07,10,15.70
2009,05,29,07,11,15.70
2009,05,29,07,12,15.70
2009,05,29,07,13,15.70
2009,05,29,07,14,15.70
2009,05,29,07,15,15.70
2009,05,29,07,16,15.80
2009,05,29,07,17,15.80
2009,05,29,07,18,15.80
2009,05,29,07,19,15.80
2009,05,29,07,20,15.90
2009,05,29,07,21,16.00
2009,05,29,07,22,16.00
2009,05,29,07,23,16.10
2009,05,29,07,24,16.20
2009,05,29,07,25,16.30
2009,05,29,07,26,16.30
2009,05,29,07,27,16.40
2009,05,29,07,28,16.40
2009,05,29,07,29,16.50
2009,05,29,07,30,16.50
2009,05,29,07,31,16.60
2009,05,29,07,32,16.60
2009,05,29,07,33,16.70
2009,05,29,07,34,16.70
2009,05,29,07,35,16.70
2009,05,29,07,36,16.70
2009,05,29,07,37,16.80
2009,05,29,07,38,16.70
2009,05,29,07,39,16.70
2009,05,29,07,40,16.70
2009,05,29,07,41,16.70
2009,05,29,07,42,16.70
2009,05,29,07,43,16.70
2009,05,29,07,44,16.70
2009,05,29,07,45,16.70
2009,05,29,07,46,16.70
2009,05,29,07,47,16.70
2009,05,29,07,48,16.70
2009,05,29,07,49,16.80
2009,05,29,07,50,16.80
2009,05,29,07,51,16.80
2009,05,29,07,52,16.90
2009,05,29,07,53,16.90
2009,05,29,07,54,17.00
2009,05,29,07,55,17.10
2009,05,29,07,56,17.10
2009,05,29,07,57,17.20
2009,05,29,07,58,17.20
2009,05,29,07,59,17.30
2009,05,29,08,00,17.30
2009,05,29,08,01,17.30
2009,05,29,08,02,17.40
2009,05,29,08,03,17.40
2009,05,29,08,04,17.50
2009,05,29,08,05,17.50
2009,05,29,08,06,17.50
2009,05,29,08,07,17.50
2009,05,29,08,08,17.50
2009,05,29,08,09,17.50
2009,05,29,08,10,17.60
2009,05,29,08,11,17.60
2009,05,29,08,12,17.60
2009,05,29,08,13,17.70
2009,05,29,08,14,17.70
2009,05,29,08,15,17.70
2009,05,29,08,16,17.70
2009,05,29,08,17,17.60
2009,05,29,08,18,17.60
2009,05,29,08,19,17.60
2009,05,29,08,20,17.70
2009,05,29,08,21,17.70
2009,05,29,08,22,17.70
2009,05,29,08,23,17.70
2009,05,29,08,24,17.70
2009,05,29,08,25,17.80
2009,05,29,08,26,17.80
2009,05,29,08,27,17.90
2009,05,29,08,28,17.90
2009,05,29,08,29,17.90
2009,05,29,08,30,17.90
2009,05,29,08,31,17.90
2009,05,29,08,32,17.90
2009,05,29,08,33,17.80
2009,05,29,08,34,17.80
2009,05,29,08,35,17.80
2009,05,29,08,36,17.80
2009,05,29,08,37,17.90
2009,05,29,08,38,17.90
2009,05,29,08,39,18.00
2009,05,29,08,40,18.10
2009,05,29,08,41,18.10
2009,05,29,08,42,18.20
2009,05,29,08,43,18.20
2009,05,29,08,44,18.20
2009,05,29,08,45,18.20
2009,05,29,08,46,18.20
2009,05,29,08,47,18.30
2009,05,29,08,48,18.30
2009,05,29,08,49,18.40
2009,05,29,08,50,18.50
2009,05,29,08,51,18.50
2009,05,29,08,52,18.60
2009,05,29,08,53,18.60
2009,05,29,08,54,18.60
2009,05,29,08,55,18.60
2009,05,29,08,56,18.70
2009,05,29,08,57,18.70
2009,05,29,08,58,18.70
2009,05,29,08,59,18.80
2009,05,29,09,00,18.90
2009,05,29,09,01,18.90
2009,05,29,09,02,18.90
2009,05,29,09,03,18.90
2009,05,29,09,04,18.90
2009,05,29,09,05,19.00
2009,05,29,09,06,19.00
2009,05,29,09,07,19.00
2009,05,29,09,08,19.10
2009,05,29,09,09,19.10
2009,05,29,09,10,19.20
2009,05,29,09,11,19.20
2009,05,29,09,12,19.30
2009,05,29,09,13,19.40
2009,05,29,09,14,19.50
2009,05,29,09,15,19.50
2009,05,29,09,16,19.60
2009,05,29,09,17,19.80
2009,05,29,09,18,19.90
2009,05,29,09,19,20.00
2009,05,29,09,20,20.10
2009,05,29,09,21,20.20
2009,05,29,09,22,20.30
2009,05,29,09,23,20.30
2009,05,29,09,24,20.50
2009,05,29,09,25,20.50
2009,05,29,09,26,20.50
2009,05,29,09,27,20.40
2009,05,29,09,28,20.40
2009,05,29,09,29,20.40
2009,05,29,09,30,20.40
2009,05,29,09,31,20.50
2009,05,29,09,32,20.40
2009,05,29,09,33,20.30
2009,05,29,09,34,20.30
2009,05,29,09,35,20.30
2009,05,29,09,36,20.30
2009,05,29,09,37,20.30
2009,05,29,09,38,20.40
2009,05,29,09,39,20.50
2009,05,29,09,40,20.70
2009,05,29,09,41,20.70
2009,05,29,09,42,20.80
2009,05,29,09,43,20.80
2009,05,29,09,44,20.80
2009,05,29,09,45,20.80
2009,05,29,09,46,20.70
2009,05,29,09,47,20.70
2009,05,29,09,48,20.80
2009,05,29,09,49,20.80
2009,05,29,09,50,20.70
2009,05,29,09,51,20.50
2009,05,29,09,52,20.30
2009,05,29,09,53,20.10
2009,05,29,09,54,20.10
2009,05,29,09,55,20.10
2009,05,29,09,56,20.10
2009,05,29,09,57,20.20
2009,05,29,09,58,20.30
2009,05,29,09,59,20.40
2009,05,29,10,00,20.40
2009,05,29,10,01,20.40
2009,05,29,10,02,20.30
2009,05,29,10,03,20.30
2009,05,29,10,04,20.30
2009,05,29,10,05,20.40
2009,05,29,10,06,20.30
2009,05,29,10,07,20.30
2009,05,29,10,08,20.30
2009,05,29,10,09,20.30
2009,05,29,10,10,20.40
2009,05,29,10,11,20.50
2009,05,29,10,12,20.60
2009,05,29,10,13,20.70
2009,05,29,10,14,20.80
2009,05,29,10,15,20.80
2009,05,29,10,16,20.90
2009,05,29,10,17,21.00
2009,05,29,10,18,21.00
2009,05,29,10,19,21.10
2009,05,29,10,20,21.10
2009,05,29,10,21,21.10
2009,05,29,10,22,21.10
2009,05,29,10,23,21.20
2009,05,29,10,24,21.30
2009,05,29,10,25,21.30
2009,05,29,10,26,21.30
2009,05,29,10,27,21.30
2009,05,29,10,28,21.30
2009,05,29,10,29,21.20
2009,05,29,10,30,21.20
2009,05,29,10,31,21.20
2009,05,29,10,32,21.30
2009,05,29,10,33,21.30
2009,05,29,10,34,21.30
2009,05,29,10,35,21.30
2009,05,29,10,36,21.30
2009,05,29,10,37,21.40
2009,05,29,10,38,21.50
2009,05,29,10,39,21.60
2009,05,29,10,40,21.60
2009,05,29,10,41,21.80
2009,05,29,10,42,21.90
2009,05,29,10,43,22.10
2009,05,29,10,44,22.10
2009,05,29,10,45,22.00
2009,05,29,10,46,21.80
2009,05,29,10,47,21.70
2009,05,29,10,48,21.50
2009,05,29,10,49,21.10
2009,05,29,10,50,20.80
2009,05,29,10,51,20.60
2009,05,29,10,52,20.30
2009,05,29,10,53,20.00
2009,05,29,10,54,19.90
2009,05,29,10,55,19.90
2009,05,29,10,56,19.90
2009,05,29,10,57,19.90
2009,05,29,10,58,19.90
2009,05,29,10,59,19.90
2009,05,29,11,00,19.80
2009,05,29,11,01,19.80
2009,05,29,11,02,19.80
2009,05,29,11,03,19.80
2009,05,29,11,04,19.80
2009,05,29,11,05,19.90
2009,05,29,11,06,19.90
2009,05,29,11,07,20.00
2009,05,29,11,08,19.90
2009,05,29,11,09,19.90
2009,05,29,11,10,19.90
2009,05,29,11,11,19.90
2009,05,29,11,12,19.90
2009,05,29,11,13,19.90
2009,05,29,11,14,20.00
2009,05,29,11,15,20.10
2009,05,29,11,16,20.20
2009,05,29,11,17,20.30
2009,05,29,11,18,20.50
2009,05,29,11,19,20.50
2009,05,29,11,20,20.50
2009,05,29,11,21,20.50
2009,05,29,11,22,20.60
2009,05,29,11,23,20.60
2009,05,29,11,24,20.60
2009,05,29,11,25,20.50
2009,05,29,11,26,20.60
2009,05,29,11,27,20.50
2009,05,29,11,28,20.50
2009,05,29,11,29,20.50
2009,05,29,11,30,20.60
2009,05,29,11,31,20.60
2009,05,29,11,32,20.70
2009,05,29,11,33,20.80
2009,05,29,11,34,20.70
2009,05,29,11,35,20.70
2009,05,29,11,36,20.80
2009,05,29,11,37,20.80
2009,05,29,11,38,20.90
2009,05,29,11,39,21.00
2009,05,29,11,40,21.20
2009,05,29,11,41,21.40
2009,05,29,11,42,21.50
2009,05,29,11,43,21.60
2009,05,29,11,44,21.60
2009,05,29,11,45,21.50
2009,05,29,11,46,21.50
2009,05,29,11,47,21.40
2009,05,29,11,48,21.40
2009,05,29,11,49,21.30
2009,05,29,11,50,21.30
2009,05,29,11,51,21.30
2009,05,29,11,52,21.40
2009,05,29,11,53,21.40
2009,05,29,11,54,21.50
2009,05,29,11,55,21.50
2009,05,29,11,56,21.50
2009,05,29,11,57,21.40
2009,05,29,11,58,21.30
2009,05,29,11,59,21.10
2009,05,29,12,00,21.10
2009,05,29,12,01,21.10
2009,05,29,12,02,21.10
2009,05,29,12,03,21.10
2009,05,29,12,04,21.10
2009,05,29,12,05,21.10
2009,05,29,12,06,21.10
2009,05,29,12,07,21.20
2009,05,29,12,08,21.20
2009,05,29,12,09,21.20
2009,05,29,12,10,21.30
2009,05,29,12,11,21.40
2009,05,29,12,12,21.50
2009,05,29,12,13,21.60
2009,05,29,12,14,21.80
2009,05,29,12,15,22.00
2009,05,29,12,16,22.20
2009,05,29,12,17,22.40
2009,05,29,12,18,22.60
2009,05,29,12,19,22.70
2009,05,29,12,20,22.70
2009,05,29,12,21,22.70
2009,05,29,12,22,22.60
2009,05,29,12,23,22.60
2009,05,29,12,24,22.60
2009,05,29,12,25,22.50
2009,05,29,12,26,22.50
2009,05,29,12,27,22.30
2009,05,29,12,28,22.30
2009,05,29,12,29,22.20
2009,05,29,12,30,22.20
2009,05,29,12,31,22.10
2009,05,29,12,32,22.00
2009,05,29,12,33,21.90
2009,05,29,12,34,22.00
2009,05,29,12,35,22.10
2009,05,29,12,36,22.30
2009,05,29,12,37,22.40
2009,05,29,12,38,22.50
2009,05,29,12,39,22.50
2009,05,29,12,40,22.50
2009,05,29,12,41,22.50
2009,05,29,12,42,22.50
2009,05,29,12,43,22.60
2009,05,29,12,44,22.60
2009,05,29,12,45,22.50
2009,05,29,12,46,22.50
2009,05,29,12,47,22.50
2009,05,29,12,48,22.40
2009,05,29,12,49,22.40
2009,05,29,12,50,22.40
2009,05,29,12,51,22.50
2009,05,29,12,52,22.50
2009,05,29,12,53,22.60
2009,05,29,12,54,22.60
2009,05,29,12,55,22.70
2009,05,29,12,56,22.70
2009,05,29,12,57,22.70
2009,05,29,12,58,22.70
2009,05,29,12,59,22.70
2009,05,29,13,00,22.60
2009,05,29,13,01,22.60
2009,05,29,13,02,22.60
2009,05,29,13,03,22.70
2009,05,29,13,04,22.80
2009,05,29,13,05,22.70
2009,05,29,13,06,22.70
2009,05,29,13,07,22.70
2009,05,29,13,08,22.60
2009,05,29,13,09,22.60
2009,05,29,13,10,22.60
2009,05,29,13,11,22.70
2009,05,29,13,12,22.80
2009,05,29,13,13,22.80
2009,05,29,13,14,22.90
2009,05,29,13,15,22.80
2009,05,29,13,16,22.70
2009,05,29,13,17,22.60
2009,05,29,13,18,22.50
2009,05,29,13,19,22.40
2009,05,29,13,20,22.40
2009,05,29,13,21,22.40
2009,05,29,13,22,22.50
2009,05,29,13,23,22.60
2009,05,29,13,24,22.60
2009,05,29,13,25,22.70
2009,05,29,13,26,22.80
2009,05,29,13,27,22.90
2009,05,29,13,28,23.00
2009,05,29,13,29,23.10
2009,05,29,13,30,23.10
2009,05,29,13,31,23.10
2009,05,29,13,32,23.00
2009,05,29,13,33,22.80
2009,05,29,13,34,22.80
2009,05,29,13,35,22.80
2009,05,29,13,36,22.80
2009,05,29,13,37,22.80
2009,05,29,13,38,22.90
2009,05,29,13,39,22.90
2009,05,29,13,40,22.90
2009,05,29,13,41,23.10
2009,05,29,13,42,23.20
2009,05,29,13,43,23.30
2009,05,29,13,44,23.40
2009,05,29,13,45,23.60
2009,05,29,13,46,23.70
2009,05,29,13,47,23.80
2009,05,29,13,48,23.80
2009,05,29,13,49,23.70
2009,05,29,13,50,23.70
2009,05,29,13,51,23.70
2009,05,29,13,52,23.80
2009,05,29,13,53,23.90
2009,05,29,13,54,24.00
2009,05,29,13,55,23.90
2009,05,29,13,56,23.80
2009,05,29,13,57,23.90
2009,05,29,13,58,24.00
2009,05,29,13,59,24.10
2009,05,29,14,00,24.20
2009,05,29,14,01,24.30
2009,05,29,14,02,24.30
2009,05,29,14,03,24.30
2009,05,29,14,04,24.30
2009,05,29,14,05,24.20
2009,05,29,14,06,24.30
2009,05,29,14,07,24.30
2009,05,29,14,08,24.40
2009,05,29,14,09,24.40
2009,05,29,14,10,24.40
2009,05,29,14,11,24.30
2009,05,29,14,12,24.30
2009,05,29,14,13,24.10
2009,05,29,14,14,24.00
2009,05,29,14,15,23.90
2009,05,29,14,16,23.80
2009,05,29,14,17,23.70
2009,05,29,14,18,23.70
2009,05,29,14,19,23.60
2009,05,29,14,20,23.70
2009,05,29,14,21,23.70
2009,05,29,14,22,23.70
2009,05,29,14,23,23.80
2009,05,29,14,24,23.90
2009,05,29,14,25,24.00
2009,05,29,14,26,24.00
2009,05,29,14,27,24.00
2009,05,29,14,28,24.10
2009,05,29,14,29,24.10
2009,05,29,14,30,24.10
2009,05,29,14,31,24.10
2009,05,29,14,32,24.20
2009,05,29,14,33,24.20
2009,05,29,14,34,24.30
2009,05,29,14,35,24.30
2009,05,29,14,36,24.40
2009,05,29,14,37,24.30
2009,05,29,14,38,24.40
2009,05,29,14,39,24.50
2009,05,29,14,40,24.70
2009,05,29,14,41,24.80
2009,05,29,14,42,24.80
2009,05,29,14,43,24.90
2009,05,29,14,44,25.00
2009,05,29,14,45,25.00
2009,05,29,14,46,24.90
2009,05,29,14,47,24.70
2009,05,29,14,48,24.70
2009,05,29,14,49,24.70
2009,05,29,14,50,24.70
2009,05,29,14,51,24.80
2009,05,29,14,52,24.70
2009,05,29,14,53,24.70
2009,05,29,14,54,24.70
2009,05,29,14,55,24.70
2009,05,29,14,56,24.70
2009,05,29,14,57,24.70
2009,05,29,14,58,24.80
2009,05,29,14,59,24.90
2009,05,29,15,00,25.00
2009,05,29,15,01,25.00
2009,05,29,15,02,24.90
2009,05,29,15,03,24.90
2009,05,29,15,04,24.90
2009,05,29,15,05,24.70
2009,05,29,15,06,24.50
2009,05,29,15,07,24.40
2009,05,29,15,08,24.20
2009,05,29,15,09,24.10
2009,05,29,15,10,24.00
2009,05,29,15,11,24.00
2009,05,29,15,12,24.10
2009,05,29,15,13,24.30
2009,05,29,15,14,24.40
2009,05,29,15,15,24.50
2009,05,29,15,16,24.60
2009,05,29,15,17,24.70
2009,05,29,15,18,24.60
2009,05,29,15,19,24.40
2009,05,29,15,20,24.40
2009,05,29,15,21,24.30
2009,05,29,15,22,24.20
2009,05,29,15,23,24.20
2009,05,29,15,24,24.20
2009,05,29,15,25,24.10
2009,05,29,15,26,24.10
2009,05,29,15,27,24.10
2009,05,29,15,28,24.10
2009,05,29,15,29,24.20
2009,05,29,15,30,24.10
2009,05,29,15,31,24.10
2009,05,29,15,32,24.00
2009,05,29,15,33,24.00
2009,05,29,15,34,24.10
2009,05,29,15,35,24.10
2009,05,29,15,36,24.20
2009,05,29,15,37,24.20
2009,05,29,15,38,24.30
2009,05,29,15,39,24.30
2009,05,29,15,40,24.40
2009,05,29,15,41,24.30
2009,05,29,15,42,24.20
2009,05,29,15,43,24.20
2009,05,29,15,44,24.20
2009,05,29,15,45,24.20
2009,05,29,15,46,24.20
2009,05,29,15,47,24.10
2009,05,29,15,48,24.10
2009,05,29,15,49,24.20
2009,05,29,15,50,24.20
2009,05,29,15,51,24.20
2009,05,29,15,52,24.30
2009,05,29,15,53,24.20
2009,05,29,15,54,24.20
2009,05,29,15,55,24.20
2009,05,29,15,56,24.30
2009,05,29,15,57,24.30
2009,05,29,15,58,24.20
2009,05,29,15,59,24.20
2009,05,29,16,00,24.00
2009,05,29,16,01,23.90
2009,05,29,16,02,23.90
2009,05,29,16,03,23.90
2009,05,29,16,04,23.90
2009,05,29,16,05,23.90
2009,05,29,16,06,24.00
2009,05,29,16,07,24.10
2009,05,29,16,08,24.10
2009,05,29,16,09,24.20
2009,05,29,16,10,24.30
2009,05,29,16,11,24.40
2009,05,29,16,12,24.50
2009,05,29,16,13,24.50
2009,05,29,16,14,24.60
2009,05,29,16,15,24.70
2009,05,29,16,16,24.80
2009,05,29,16,17,24.80
2009,05,29,16,18,24.80
2009,05,29,16,19,24.80
2009,05,29,16,20,24.80
2009,05,29,16,21,24.80
2009,05,29,16,22,24.70
2009,05,29,16,23,24.70
2009,05,29,16,24,24.70
2009,05,29,16,25,24.70
2009,05,29,16,26,24.70
2009,05,29,16,27,24.70
2009,05,29,16,28,24.70
2009,05,29,16,29,24.70
2009,05,29,16,30,24.60
2009,05,29,16,31,24.40
2009,05,29,16,32,24.40
2009,05,29,16,33,24.30
2009,05,29,16,34,24.30
2009,05,29,16,35,24.30
2009,05,29,16,36,24.30
2009,05,29,16,37,24.50
2009,05,29,16,38,24.70
2009,05,29,16,39,24.80
2009,05,29,16,40,24.90
2009,05,29,16,41,25.00
2009,05,29,16,42,25.20
2009,05,29,16,43,25.30
2009,05,29,16,44,25.40
2009,05,29,16,45,25.60
2009,05,29,16,46,25.70
2009,05,29,16,47,25.70
2009,05,29,16,48,25.80
2009,05,29,16,49,25.90
2009,05,29,16,50,25.90
2009,05,29,16,51,25.90
2009,05,29,16,52,25.90
2009,05,29,16,53,25.90
2009,05,29,16,54,25.90
2009,05,29,16,55,25.90
2009,05,29,16,56,25.80
2009,05,29,16,57,25.80
2009,05,29,16,58,25.70
2009,05,29,16,59,25.60
2009,05,29,17,00,25.60
2009,05,29,17,01,25.60
2009,05,29,17,02,25.50
2009,05,29,17,03,25.40
2009,05,29,17,04,25.40
2009,05,29,17,05,25.50
2009,05,29,17,06,25.60
2009,05,29,17,07,25.60
2009,05,29,17,08,25.60
2009,05,29,17,09,25.50
2009,05,29,17,10,25.50
2009,05,29,17,11,25.40
2009,05,29,17,12,25.40
2009,05,29,17,13,25.40
2009,05,29,17,14,25.30
2009,05,29,17,15,25.30
2009,05,29,17,16,25.30
2009,05,29,17,17,25.30
2009,05,29,17,18,25.30
2009,05,29,17,19,25.40